Zurück zum Katalog

DELTA 1 DEB

AktivSSO
NORAD 21512·DEBRIS·🇺🇸 United States

Gestartet Jun 12, 1975 von Vandenberg Space Force Base

Loading…

Nächste Überflüge (nächste 24 Stunden)

TLE

AktuellSource: Space-Track

Epoche: Sep 14, 2026, 22:53 UTC

1 21512U 75052GH  26257.95378660  .00000054  00000-0  17799-3 0  9991
2 21512  99.8824 151.3597 0037082 338.8170  42.5003 13.40618303720848

Verfolge DELTA 1 DEB in Echtzeit mit AllMySat

Download on the App Store